Lancaster, PA

6:05 PM EDT on May 26, 2018 (GMT -0400)
Lancaster

Weather History for KLNS - December, 2013

Change the Weather History Date:

Sunday, December 22, 2013

  Actual Average Record
Temperature  
Mean Temperature 60 °F -  
Max Temperature 64 °F 41 °F 84 °F (1998)
Min Temperature 55 °F 23 °F 4 °F (1989)
Degree Days  
Heating Degree Days 6    
Growing Degree Days 10 (Base 50)    
Moisture  
Dew Point 57 °F    
Average Humidity 87    
Maximum Humidity 96    
Minimum Humidity 75    
Precipitation  
Precipitation 0.17 in - - ()
Sea Level Pressure  
Sea Level Pressure 29.88 in    
Wind  
Wind Speed 9 mph (SSW)    
Max Wind Speed 17 mph    
Max Gust Speed 24 mph    
Visibility 9 miles    
Events Rain    
Averages and records for this station are not official NWS values.
T = Trace of Precipitation, MM = Missing Value Source: NWS Daily Summary

Daily Weather History Graph

Daily Weather History Graph

Search for Another Location

Airport or City:

Astronomy

Dec. 22, 2013 Rise Set
Actual Time 7:24 AM EST 4:43 PM EST
Civil Twilight 6:53 AM EST 5:14 PM EST
Nautical Twilight 6:19 AM EST 5:48 PM EST
Astronomical Twilight 5:46 AM EST 6:21 PM EST
Moon 9:54 PM EST (12/22) 10:19 AM EST (12/22)
Length of Visible Light 10h 20m
Length of Day
9h 19m
Waning Gibbous, 77% of the Moon is Illuminated
Dec 22
Waning Gibbous
Dec 25
Last Quarter
Jan 1
New
Jan 7
First Quarter
Jan 15
Full

Hourly Weather History & Observations

Time (EST) Temp. Dew Point Humidity Pressure Visibility Wind Dir Wind Speed Gust Speed Precip Events Conditions
12:53 AM 60.1 °F 54.0 °F 80% 29.86 in 10.0 mi SSW 11.5 mph 18.4 mph N/A   Clear
1:53 AM 60.1 °F 55.9 °F 86% 29.83 in 10.0 mi SSE 10.4 mph - 0.00 in   Clear
2:53 AM 61.0 °F 57.0 °F 87% 29.83 in 10.0 mi SSW 11.5 mph - N/A   Scattered Clouds
3:02 AM 60.8 °F 57.2 °F 88% 29.83 in 10.0 mi SSW 8.1 mph - N/A   Mostly Cloudy
3:16 AM 62.6 °F 57.2 °F 82% 29.82 in 10.0 mi SSW 10.4 mph 21.9 mph N/A   Partly Cloudy
3:53 AM 62.1 °F 57.9 °F 86% 29.81 in 10.0 mi SSW 8.1 mph - N/A   Clear
4:53 AM 63.0 °F 59.0 °F 87% 29.78 in 10.0 mi South 13.8 mph 24.2 mph 0.00 in   Mostly Cloudy
5:53 AM 64.0 °F 59.0 °F 84% 29.80 in 10.0 mi SSW 12.7 mph 21.9 mph N/A   Mostly Cloudy
6:53 AM 64.9 °F 59.0 °F 81% 29.82 in 10.0 mi SSW 10.4 mph 23.0 mph N/A   Mostly Cloudy
7:24 AM 62.6 °F 59.0 °F 88% 29.87 in 10.0 mi West 13.8 mph 23.0 mph 0.00 in Rain Light Rain
7:35 AM 62.6 °F 60.8 °F 94% 29.87 in 2.5 mi WSW 9.2 mph - 0.10 in Rain Heavy Rain
7:44 AM 62.6 °F 60.8 °F 94% 29.88 in 4.0 mi WSW 9.2 mph - 0.13 in Rain Rain
7:53 AM 63.0 °F 60.1 °F 90% 29.88 in 6.0 mi WSW 11.5 mph - 0.13 in Rain Light Rain
8:53 AM 63.0 °F 59.0 °F 87% 29.90 in 10.0 mi SW 4.6 mph - 0.01 in   Overcast
9:53 AM 63.0 °F 60.1 °F 90% 29.95 in 7.0 mi WSW 5.8 mph - 0.00 in Rain Light Rain
10:53 AM 63.0 °F 59.0 °F 87% 29.95 in 10.0 mi SW 4.6 mph - 0.02 in Rain Light Rain
11:53 AM 64.0 °F 60.1 °F 87% 29.91 in 10.0 mi South 10.4 mph - 0.00 in   Overcast
12:53 PM 64.0 °F 59.0 °F 84% 29.86 in 10.0 mi South 10.4 mph - N/A   Overcast
1:53 PM 64.0 °F 57.9 °F 80% 29.86 in 10.0 mi SSW 9.2 mph - N/A   Mostly Cloudy
2:53 PM 63.0 °F 55.0 °F 75% 29.86 in 10.0 mi WSW 8.1 mph - 0.00 in   Overcast
3:53 PM 61.0 °F 55.0 °F 81% 29.85 in 10.0 mi South 17.3 mph - 0.01 in Rain Light Rain
4:53 PM 60.1 °F 55.9 °F 86% 29.91 in 10.0 mi West 4.6 mph - 0.00 in Rain Light Rain
5:53 PM 60.1 °F 55.9 °F 86% 29.90 in 10.0 mi South 4.6 mph - 0.00 in   Clear
6:53 PM 57.9 °F 55.0 °F 90% 29.93 in 10.0 mi South 4.6 mph - N/A   Clear
7:53 PM 55.9 °F 54.0 °F 93% 29.94 in 10.0 mi Calm Calm - N/A   Clear
8:53 PM 55.0 °F 54.0 °F 96% 29.96 in 10.0 mi South 5.8 mph - N/A   Clear
9:53 PM 57.0 °F 55.0 °F 93% 29.94 in 10.0 mi South 4.6 mph - N/A   Clear
10:53 PM 57.9 °F 55.0 °F 90% 29.95 in 10.0 mi Calm Calm - N/A   Clear
11:53 PM 55.0 °F 54.0 °F 96% 29.96 in 10.0 mi Calm Calm - N/A   Clear